RH
77 88 90 71 69 57 68 61 55 51 39 44 46 47 40 34 30 30 28 28 26 24 24 24 24 25 25 25 25 27 31 36 39 43 43 63 68 62 61 68 67 68 69 68
93 89 70 62 62 63 53 62 60 41 39 42 46 53 45 40 32 28 28 27 28 27 25 27 29 29 28 28 30 31 32 32 34 35 36 40 44 52 65 62 62 73 72 69
84 71 62 65 65 66 61 52 52 48 46 43 43 47 44 36 31 29 30 30 30 28 28 31 31 30 29 28 28 28 29 29 30 34 36 36 36 40 46 53 65 74 77 62
82 68 68 69 65 59 70 40 39 53 58 66 41 58 44 41 39 33 30 29 29 31 37 42 43 39 36 38 37 33 31 31 31 34 37 38 39 40 42 53 85 86 76 67
96 84 87 82 70 63 54 36 54 55 57 56 53 60 48 46 43 39 33 27 28 40 42 46 46 48 49 46 41 39 40 40 36 33 30 28 31 37 42 44 53 63 79 87
95 82 82 78 78 81 72 55 60 62 67 90 65 60 50 52 41 41 40 43 45 49 54 55 59 63 64 59 52 47 41 41 43 42 38 38 34 33 32 31 34 41 52 76
98 96 85 86 79 78 75 69 95 93 94 89 50 64 49 38 40 42 47 43 46 53 57 60 61 62 61 57 55 54 51 51 50 52 54 53 53 47 46 39 37 35 46 72
88 100 97 89 88 92 83 62 87 85 98 85 49 69 47 36 35 35 38 43 49 54 59 62 62 62 61 59 58 56 54 55 55 57 58 60 60 62 62 59 52 50 49 51
90 94 91 88 89 84 91 86 56 67 55 83 64 41 37 48 51 49 49 49 49 56 62 63 63 64 63 62 65 62 64 61 60 60 63 66 69 69 69 68 65 61 56 49
86 97 93 91 94 82 83 63 73 90 62 76 67 52 50 54 51 48 49 47 48 56 63 63 62 64 64 66 71 70 71 67 65 65 62 61 61 61 61 60 58 55 52 49
67 78 99 94 98 96 84 88 72 70 70 66 61 53 31 44 42 46 49 46 50 52 63 64 63 63 64 71 72 72 73 70 68 66 63 62 61 61 60 60 58 58 57 56
56 77 99 99 77 74 82 79 66 87 76 74 68 60 32 38 38 39 49 48 48 56 63 65 62 63 68 74 72 72 74 74 70 66 64 63 62 63 64 66 69 70 69 69
53 80 96 96 73 69 94 82 71 64 82 84 78 58 37 45 46 43 44 44 51 59 64 65 62 65 70 74 72 74 76 73 71 71 70 72 74 74 74 76 77 80 85 90
48 67 73 83 73 75 83 73 60 72 84 68 71 47 47 47 44 40 42 46 59 64 65 63 62 70 74 75 75 75 76 77 76 78 78 78 75 73 76 80 84 82 81 81
62 80 74 66 78 86 76 69 73 79 66 72 52 46 41 42 41 38 42 54 63 65 64 61 61 71 75 75 75 78 78 80 82 82 82 78 75 75 79 85 92 86 88 83
64 90 78 84 65 69 69 68 70 68 64 66 62 58 37 31 36 42 46 61 65 65 62 61 63 72 75 76 79 82 83 84 88 86 83 80 80 83 87 88 88 93 96 97
71 83 91 88 61 65 74 69 70 69 65 60 73 54 44 45 48 48 53 60 65 64 62 64 66 70 73 76 81 86 86 85 88 83 80 82 87 88 88 89 95 97 92 90
73 74 84 91 76 92 46 48 53 60 60 60 53 47 43 46 48 50 55 63 65 62 63 67 68 71 73 76 80 83 86 84 81 82 84 86 85 85 89 93 93 94 93 89
57 72 82 91 94 60 64 54 56 64 63 55 55 47 40 53 56 62 65 69 65 62 65 68 70 72 76 81 84 85 85 82 84 86 86 82 83 83 94 95 94 92 87 86
58 60 76 87 92 88 66 51 45 51 81 52 48 49 45 60 84 88 71 69 64 67 69 70 74 78 79 83 86 86 86 89 90 90 84 82 80 85 92 90 94 90 80 66
77 73 84 70 89 70 57 55 48 84 73 53 42 44 61 74 69 74 74 72 70 71 72 71 73 79 82 82 83 86 95 98 95 86 82 80 84 88 91 94 74 34 31 31
72 75 78 76 86 86 57 52 74 71 62 61 60 61 61 63 65 66 68 69 70 73 75 73 72 76 80 79 78 87 98 97 90 80 80 83 86 89 84 45 30 31 30 26
67 61 55 70 72 49 46 56 63 62 62 63 59 60 61 63 65 66 68 70 71 72 78 75 70 72 73 75 75 80 87 88 85 90 87 88 86 57 32 30 31 28 25 24
54 50 60 58 54 56 60 61 61 63 63 65 65 64 63 63 66 68 69 70 72 73 78 79 72 72 73 70 70 76 80 84 94 98 94 81 38 29 29 28 29 27 23 20
62 56 63 64 55 53 58 57 59 65 68 69 70 68 67 66 66 68 68 70 72 75 76 81 78 70 72 70 70 75 82 84 93 89 74 46 30 27 26 29 30 25 19 17
58 67 77 80 60 58 62 57 66 65 66 67 66 67 68 69 70 71 71 74 73 74 77 78 81 76 76 74 72 78 86 85 86 75 52 34 28 26 25 28 28 22 18 16
Wind_Speed
21 8 19 26 11 6 7 3 6 7 7 6 11 6 12 13 8 13 16 15 10 9 6 12 16 17 20 21 20 23 25 18 10 14 18 22 23 24 24 23 24 26 27 26
8 15 10 9 8 6 9 9 8 2 6 13 11 11 10 13 12 18 18 16 14 12 9 10 14 16 20 20 19 20 23 24 24 22 18 18 21 23 25 27 28 27 26 29
12 8 12 12 10 11 6 6 5 4 3 4 4 5 7 9 11 21 15 12 9 5 7 7 8 10 12 16 21 23 25 27 29 30 29 29 30 30 27 25 26 28 28 28
6 4 11 12 13 7 6 6 3 13 5 4 5 4 7 12 7 7 10 9 10 10 11 9 6 5 7 9 10 12 15 20 23 27 28 29 32 31 28 22 20 20 20 23
2 5 10 10 3 3 5 1 7 5 6 4 1 1 6 8 6 7 8 9 11 11 9 6 4 4 3 3 4 5 6 7 8 9 11 18 24 28 30 30 25 18 16 20
5 6 4 3 3 3 5 8 7 5 2 1 5 5 4 6 14 6 8 17 15 12 11 6 5 5 5 6 7 7 8 9 10 11 10 10 11 11 13 17 24 28 27 20
4 3 4 2 3 6 2 5 2 2 1 5 3 7 9 7 6 8 12 17 15 12 11 8 6 6 6 7 8 8 9 10 12 14 14 13 13 13 13 13 14 16 22 21
4 5 2 2 4 3 9 4 5 6 4 4 2 7 5 7 16 25 24 22 17 14 11 8 5 4 5 8 9 9 8 9 10 11 12 14 15 14 14 15 14 14 16 20
4 3 1 2 2 2 6 4 3 3 2 4 4 3 4 5 8 15 22 21 17 13 11 8 5 5 6 8 8 7 6 7 7 7 8 11 13 15 17 18 19 19 19 18
6 5 3 5 1 2 3 0 1 3 3 4 4 3 4 7 8 7 10 16 17 15 11 9 7 7 7 7 7 6 6 6 4 4 5 7 8 9 11 13 14 14 16 17
2 4 4 6 4 6 2 1 2 2 4 4 4 5 3 16 13 10 12 17 19 15 14 11 8 7 8 7 7 7 7 6 5 6 6 8 9 10 11 11 13 14 16 17
5 3 3 1 4 7 2 4 4 4 4 2 2 4 4 9 9 14 16 18 14 14 12 10 8 6 7 9 9 8 8 7 7 7 8 9 10 11 11 10 10 12 16 17
3 2 3 2 2 4 4 5 5 3 2 4 4 4 2 9 10 17 14 13 15 14 11 8 7 6 9 11 10 8 6 6 6 6 7 8 8 8 8 8 8 9 10 10
2 2 3 6 4 4 5 12 5 5 3 2 4 3 4 7 8 11 15 16 17 14 10 8 7 8 10 11 10 9 8 6 7 6 6 7 7 7 7 7 6 4 4 7
3 3 2 2 4 3 2 4 8 5 4 5 2 5 10 9 8 13 16 17 15 12 8 8 8 10 10 11 10 9 8 6 8 7 7 7 8 7 6 5 3 3 1 2
2 1 2 3 4 4 3 6 7 6 5 3 3 5 6 11 10 13 13 16 12 10 9 10 9 10 13 12 11 11 9 7 8 8 7 7 7 5 3 2 2 3 5 6
3 4 3 2 1 3 6 10 10 6 5 9 8 7 5 5 8 10 11 13 12 11 11 10 9 10 12 12 12 11 10 8 8 8 7 5 3 2 2 5 6 9 10 11
4 4 2 2 3 1 6 2 8 14 10 8 4 6 8 7 9 8 11 14 13 11 8 7 8 10 11 11 10 9 9 8 7 6 4 1 1 2 6 9 11 11 11 11
3 3 2 3 3 5 1 3 4 7 8 9 8 6 7 10 7 3 9 12 12 9 6 6 7 8 9 9 10 9 9 8 5 4 3 4 5 7 10 12 13 13 13 13
3 2 4 2 1 3 2 2 2 4 4 7 16 8 4 7 2 3 12 10 10 7 5 4 5 7 9 8 8 9 9 7 6 6 7 8 9 11 12 13 12 11 11 9
2 1 4 4 2 5 3 3 4 2 2 2 18 12 12 4 4 8 9 8 8 7 5 5 4 4 5 6 7 8 6 7 8 9 10 11 12 12 12 11 10 9 9 8
5 5 3 3 3 6 6 3 2 3 3 12 14 11 10 7 5 4 5 6 8 9 7 6 5 5 5 5 6 8 8 8 10 11 13 13 12 11 10 9 8 7 5 4
3 5 4 6 5 4 7 4 6 10 10 7 9 7 6 5 4 4 4 5 6 8 9 8 7 6 6 6 6 7 9 11 13 14 13 12 11 10 9 6 4 3 2 2
2 4 2 1 2 7 12 10 9 11 9 10 7 6 5 3 4 4 5 6 7 8 11 11 10 9 9 7 7 8 12 14 14 14 13 11 10 9 7 4 3 2 2 3
5 4 4 3 5 3 13 14 13 12 9 7 6 5 5 7 7 7 7 9 10 9 11 14 13 12 10 10 11 11 13 14 15 14 12 11 10 8 6 5 5 4 4 4
5 6 4 4 2 3 5 17 14 11 8 6 5 4 5 6 7 8 10 10 12 13 12 15 17 15 14 13 13 15 15 15 15 14 13 11 11 9 8 7 6 6 6 6
Wind_Direction
179 166 192 196 179 110 131 116 152 204 199 171 226 217 227 255 188 197 220 234 256 258 246 232 241 235 229 234 232 234 238 233 229 241 249 258 263 263 252 249 254 254 254 255
151 204 189 149 160 218 167 172 215 241 203 187 202 221 208 235 221 219 225 232 249 266 260 210 205 213 222 229 230 230 231 232 235 235 240 251 254 262 266 266 266 264 260 260
159 160 157 165 178 207 223 175 199 159 84 31 120 272 232 232 221 215 218 216 214 235 189 191 221 236 245 249 253 251 246 244 243 244 243 243 248 254 255 258 262 268 275 277
101 129 165 172 191 185 221 206 211 148 114 188 173 256 239 212 188 191 204 220 226 192 166 165 181 239 266 263 256 249 248 247 247 246 247 249 250 253 260 264 263 267 277 281
150 126 140 169 165 54 228 162 135 129 129 107 221 100 258 164 207 204 205 207 189 167 171 169 211 250 244 246 241 239 239 248 250 248 254 255 257 260 259 256 258 266 266 275
57 27 51 153 72 45 310 82 54 56 83 47 217 170 256 196 205 161 155 148 145 143 143 154 164 183 245 278 279 270 258 248 257 267 268 266 267 267 267 262 257 255 258 261
91 25 7 2 94 341 12 103 53 25 11 216 299 198 253 221 186 162 161 159 159 156 159 167 195 222 258 283 293 292 279 266 257 257 262 266 267 269 270 268 265 259 250 249
131 142 11 38 149 207 201 169 154 177 195 221 321 216 252 243 166 160 162 166 165 166 175 194 216 239 279 296 308 307 292 277 273 270 266 264 262 260 266 269 268 267 264 257
130 102 62 247 117 210 190 196 174 125 39 82 212 257 349 50 107 133 148 157 165 168 182 192 215 251 281 294 308 304 294 287 289 279 265 261 259 259 259 261 265 266 267 265
162 118 197 154 201 273 248 300 97 4 150 232 265 226 210 178 173 163 160 169 176 177 184 196 224 250 273 284 298 293 286 290 296 281 276 281 283 279 275 275 274 272 271 271
151 110 147 146 203 182 105 149 200 140 153 189 175 252 224 186 178 166 179 181 178 180 181 194 229 251 270 271 282 284 282 280 276 279 285 290 290 286 283 282 282 281 279 277
164 106 114 119 203 180 79 202 184 140 238 226 157 274 314 173 158 157 164 162 169 182 194 224 242 250 243 257 265 275 278 274 279 287 292 295 293 287 284 285 289 296 294 287
160 134 104 67 30 209 185 245 207 115 100 217 137 265 36 118 133 149 158 176 182 192 209 231 242 240 240 248 262 261 259 269 281 291 297 304 305 299 294 288 292 321 327 334
119 107 163 182 191 140 183 186 173 154 136 237 211 173 140 150 155 175 183 184 182 191 207 237 234 229 229 244 259 250 253 269 281 287 289 296 304 314 313 310 292 289 344 339
89 125 97 51 98 82 174 185 170 166 180 154 267 192 189 186 185 194 187 175 177 190 218 244 251 225 222 245 251 248 250 263 272 275 287 297 305 311 314 322 298 271 297 340
57 159 92 340 162 150 215 242 202 199 211 243 264 281 184 208 171 159 174 173 178 190 221 243 249 220 223 235 246 241 246 259 267 278 291 309 311 316 330 3 31 73 84 75
119 131 98 258 324 351 297 221 201 197 190 191 209 219 152 175 175 174 178 186 192 199 225 238 237 217 222 232 241 243 254 259 263 276 291 304 319 355 54 85 97 98 90 88
128 121 119 181 37 343 250 125 198 200 196 198 199 215 195 165 159 179 194 193 193 206 222 233 234 225 228 234 240 251 259 265 265 267 283 277 76 111 113 113 109 103 98 95
114 130 133 138 194 269 223 233 165 167 234 203 197 200 164 151 151 171 190 193 200 209 229 246 242 241 237 241 254 261 263 262 242 229 194 140 128 126 123 118 113 103 100 95
48 94 124 134 165 241 240 211 199 117 257 219 181 187 164 149 159 230 181 198 201 212 236 258 243 232 224 234 254 268 268 239 206 180 155 141 137 131 129 118 111 103 95 88
124 336 174 229 238 284 234 167 117 164 253 114 174 190 162 146 180 159 189 211 220 227 250 274 274 232 218 241 267 272 227 191 178 162 153 146 142 140 131 122 115 103 95 92
165 181 184 188 204 266 160 119 203 174 101 113 122 134 129 145 166 185 211 228 236 235 236 254 251 245 234 238 245 239 196 175 162 155 150 147 145 141 132 128 118 110 99 76
178 183 197 173 214 214 191 193 154 165 152 139 141 142 152 161 187 213 241 246 249 243 234 245 249 250 239 232 221 198 182 167 159 155 155 154 154 152 147 143 142 142 107 29
257 174 186 73 275 194 164 164 167 169 165 159 162 163 174 194 213 232 253 268 261 254 238 240 243 238 237 223 208 192 183 172 170 170 168 168 168 169 172 183 204 230 266 303
211 135 185 252 275 203 206 195 193 186 187 190 200 217 229 237 244 252 255 262 267 264 246 239 242 239 233 229 211 198 190 187 183 178 180 185 189 195 201 213 229 247 266 287
207 189 163 220 252 202 226 202 191 187 194 209 227 245 256 263 266 263 261 258 263 261 257 247 241 237 230 228 223 204 199 197 192 195 194 199 208 215 222 233 241 248 263 286